| time (UTC) | temp C | wind direction | speed KPH | gust KPH | rain 1hr cm | rain 24hr cm | rain mn cm | humidity % | barometer mb |
| 20260505001506 | 21 | 20 | 0.0 | 0.0 | 0.00 | 0.00 | 0.00 | 18 | 1022.9 |
| 20260505000003 | 20 | 20 | 0.0 | 0.0 | 0.00 | 0.00 | 0.00 | 18 | 1023.0 |
| 20260504231504 | 18 | 17 | 0.0 | 0.0 | 0.00 | 0.00 | 0.00 | 23 | 1023.3 |
| 20260504230002 | 18 | 53 | 0.0 | 0.0 | 0.00 | 0.00 | 0.00 | 25 | 1023.4 |
| 20260504223006 | 17 | 53 | 0.0 | 0.0 | 0.00 | 0.00 | 0.00 | 28 | 1022.9 |
| 20260504220007 | 16 | 53 | 0.0 | 0.0 | 0.00 | 0.00 | 0.00 | 31 | 1022.7 |
| 20260504214530 | 15 | 53 | 0.0 | 0.0 | 0.00 | 0.00 | 0.00 | 32 | 1022.6 |
| 20260504211502 | 15 | 1 | 0.0 | 0.0 | 0.00 | 0.00 | 0.00 | 31 | 1022.1 |
| 20260504210006 | 15 | 1 | 0.0 | 0.0 | 0.00 | 0.05 | 0.00 | 29 | 1021.6 |
| 20260504203005 | 15 | 1 | 0.0 | 0.0 | 0.00 | 0.05 | 0.00 | 28 | 1020.9 |
| 20260504194503 | 15 | 1 | 0.0 | 0.0 | 0.00 | 0.05 | 0.00 | 31 | 1019.7 |
| 20260504193004 | 15 | 1 | 0.0 | 0.0 | 0.00 | 0.05 | 0.00 | 34 | 1019.1 |
| 20260504191502 | 15 | 333 | 0.0 | 0.0 | 0.00 | 0.05 | 0.00 | 35 | 1018.7 |
| 20260504190006 | 15 | 307 | 0.0 | 0.0 | 0.00 | 0.05 | 0.00 | 37 | 1018.3 |
| 20260504184504 | 15 | 300 | 0.0 | 0.0 | 0.00 | 0.05 | 0.00 | 38 | 1017.9 |
| 20260504183005 | 15 | 314 | 0.0 | 0.0 | 0.00 | 0.05 | 0.00 | 39 | 1017.3 |
| 20260504180005 | 15 | 349 | 0.0 | 0.0 | 0.00 | 0.05 | 0.00 | 40 | 1016.6 |
| 20260504174502 | 15 | 359 | 0.0 | 0.0 | 0.00 | 0.05 | 0.00 | 40 | 1016.3 |
| 20260504173004 | 15 | 359 | 0.0 | 0.0 | 0.00 | 0.05 | 0.00 | 40 | 1015.6 |
| 20260504171508 | 15 | 323 | 0.0 | 0.0 | 0.00 | 0.05 | 0.00 | 40 | 1015.1 |
| 20260504081507 | 21 | 120 | 8.0 | 20.9 | 0.00 | 0.05 | 0.05 | 45 | 1000.5 |
| 20260504050008 | 25 | 359 | 9.7 | 25.7 | 0.00 | 0.05 | 0.05 | 46 | 999.2 |
| 20260504044505 | 25 | 336 | 9.7 | 30.6 | 0.00 | 0.05 | 0.05 | 44 | 999.1 |
| 20260504043007 | 26 | 339 | 4.8 | 24.1 | 0.00 | 0.05 | 0.05 | 46 | 999.2 |
| 20260504041505 | 26 | 146 | 4.8 | 17.7 | 0.00 | 0.05 | 0.05 | 45 | 999.5 |
| 20260504040008 | 26 | 222 | 6.4 | 16.1 | 0.00 | 0.05 | 0.05 | 47 | 999.9 |
| 20260504034505 | 25 | 298 | 4.8 | 12.9 | 0.00 | 0.05 | 0.05 | 47 | 1000.0 |
| 20260504033007 | 25 | 298 | 8.0 | 19.3 | 0.00 | 0.05 | 0.05 | 48 | 1000.2 |
| 20260504031505 | 25 | 338 | 0.0 | 0.0 | 0.00 | 0.05 | 0.05 | 50 | 1000.1 |
| 20260504030008 | 25 | 51 | 1.6 | 6.4 | 0.00 | 0.05 | 0.05 | 60 | 1000.6 |
| 20260504024505 | 24 | 208 | 0.0 | 3.2 | 0.00 | 0.05 | 0.05 | 80 | 1000.8 |
| 20260504021510 | 23 | 359 | 1.6 | 6.4 | 0.00 | 0.05 | 0.05 | 82 | 1000.9 |
| 20260504020007 | 25 | 359 | 3.2 | 8.0 | 0.00 | 0.05 | 0.05 | 56 | 1000.9 |
| 20260504013005 | 25 | 138 | 3.2 | 14.5 | 0.00 | 0.05 | 0.05 | 89 | 1001.1 |
| 20260504011508 | 24 | 359 | 3.2 | 9.7 | 0.00 | 0.05 | 0.05 | 97 | 1001.1 |
| 20260504010005 | 24 | 322 | 1.6 | 9.7 | 0.00 | 0.05 | 0.05 | 100 | 1001.0 |
| 20260504004503 | 24 | 278 | 3.2 | 12.9 | 0.00 | 0.05 | 0.05 | 100 | 1001.2 |